Regional Weather Roundup
Issued by NWS

Home | Current Version | Previous Version | Text Only | Print | Product List | Glossary On
Versions: 1 2 3 4 5 6 7 8 9 10 11 12 13 14 15 16 17 18 19 20 21 22 23 24 25 26 27 28 29 30 31 32 33 34 35 36 37 38 39 40 41 42 43 44 45 46 47 48 49 50
045
ASUS44 KJAN 190703
RWRMS

MISSISSIPPI HOURLY WEATHER ROUNDUP
NATIONAL WEATHER SERVICE JACKSON MS
200 AM CDT SAT APR 19 2014

NOTE: "FAIR: INDICATES FEW OR NO CLOUDS BELOW 12,000 FEET WITH NO
SIGNIFICANT WEATHER AND/OR OBSTRUCTIONS TO VISIBILITY.

MSZ001>002-007>008-010>013-018>021-025>028-034>036-190800-
NORTHWEST MISSISSIPPI

CITY           SKY/WX    TMP DP  RH WIND       PRES   REMARKS
CLARKSDALE       N/A     55  55 100 CALM      30.20S
CLEVELAND      FAIR      56  54  94 W3        30.19S
GREENWOOD      PTCLDY    52  50  93 CALM      30.19F FOG
GREENVILLE     CLEAR     55  52  89 CALM      30.18F
GRENADA        FAIR      50  48  93 CALM      30.19S
OLIVE BRANCH   CLEAR     55  54  94 CALM      30.19S
OXFORD         FAIR      48  48 100 CALM      30.20S
TUNICA         SUNNY     54  52  94 CALM      30.19F
$$

MSZ003>006-009-014>017-022>024-029>033-037>039-190800-
NORTHEAST MISSISSIPPI

CITY           SKY/WX    TMP DP  RH WIND       PRES   REMARKS
BELMONT        FAIR      50  49  97 CALM      30.16F
COLUMBUS AFB   MOCLDY    52  52 100 NW1       30.16S FOG
CORINTH        FAIR      50  48  93 CALM      30.18S FOG
GOLDN TRIANGLE CLOUDY    52  48  87 NW5       30.19R
STARKVILLE     FAIR      46  46 100 CALM      30.16S FOG
TUPELO         PTCLDY    52  49  89 CALM      30.17F
$$

MSZ040-058-190800-
CENTRAL MISSISSIPPI

CITY           SKY/WX    TMP DP  RH WIND       PRES   REMARKS
JACKSON INTL   CLEAR     51  50  96 CALM      30.19F
JACKSON HAWKNS CLEAR     55  52  89 CALM      30.19F
MERIDIAN KEY   MOCLDY    52  51  97 N3        30.16F
MERIDIAN NAS   CLOUDY    53  51  93 NW5       30.16F
RAYMOND        FOG       50  46  87 CALM      30.19F VSB 1/2
VICKSBURG      CLEAR     59  55  87 E7        30.17F
$$

MSZ059>079-190800-
SOUTH MISSISSIPPI

CITY           SKY/WX    TMP DP  RH WIND       PRES   REMARKS
BROOKHAVEN     FAIR      52  52 100 NE3       30.19F FOG
COLUMBIA       FAIR      52  50  93 MISG      30.17S FOG
HATTIESBURG    PTCLDY    55  53  93 NW7       30.17S
MCCOMB         CLEAR     56  52  86 NE7       30.15F
NATCHEZ        CLEAR     57  54  88 E5        30.14F
PINE BELT      PTCLDY    54  50  87 N7        30.17S
$$

MSZ080>082-190800-
COASTAL MISSISSIPPI

CITY           SKY/WX    TMP DP  RH WIND       PRES   REMARKS
BILOXI         PTCLDY    57  53  86 N9        30.12F
PASCAGOULA     CLOUDY    56  54  93 NW8       30.11F
GULFPORT       PTCLDY    57  53  86 N9        30.12F
$$



USA.gov is the U.S. government's official web portal to all federal, state and local government web resources and services.